Location: Prague
(50.0830°N, 14.4670°E)
Time: 16:47:55
(UTC+01:00)

HuskySat-1 - Visible Passes

Search period start: 28 November 2021 00:00
Search period end: 08 December 2021 00:00
Orbit: 444 x 456 km, 51.6° (Epoch: 28 November)

Date Brightness Start Highest point End Pass type
(mag) Time Alt. Az. Time Alt. Az. Time Alt. Az.
30 Nov ? 18:58:46 10° SSW 18:59:02 12° SSW 18:59:02 12° SSW visible
01 Dec ? 18:21:19 10° SSW 18:23:06 21° S 18:23:06 21° S visible
02 Dec ? 17:43:57 10° S 17:46:38 20° SE 17:47:04 20° SE visible
02 Dec ? 19:20:09 10° WSW 19:20:40 14° WSW 19:20:40 14° WSW visible
03 Dec ? 17:06:44 10° S 17:08:59 16° SE 17:10:59 11° ESE visible
03 Dec ? 18:42:26 10° WSW 18:44:34 33° SW 18:44:34 33° SW visible
04 Dec ? 18:04:43 10° SW 18:08:13 52° SSE 18:08:24 51° SE visible
05 Dec ? 17:27:03 10° SW 17:30:27 42° SSE 17:32:11 24° E visible
05 Dec ? 19:04:16 10° W 19:05:46 23° W 19:05:46 23° W visible
06 Dec ? 16:49:26 10° SW 16:52:42 35° SSE 16:55:55 10° E visible
06 Dec ? 18:26:26 10° W 18:29:30 62° W 18:29:30 62° W visible
07 Dec ? 17:48:36 10° WSW 17:52:11 89° NNW 17:53:12 45° ENE visible
07 Dec ? 19:26:15 10° W 19:26:47 14° WNW 19:26:47 14° WNW visible
